GFSSGP_sfc_thetae_114.txt.gz
Theta_e
317 315 312 305 291 287 282 289 293 295 297 301 306 306 305 310 310 306 334 339 343 343 346 348 348 351 352 352 351 352 353 353 353 353 352 353 353 353 353 354 354 355 355 353 352 352 351 350 350
311 314 306 298 287 280 283 291 293 296 302 305 307 308 308 314 327 332 331 341 343 344 346 346 348 349 351 351 351 352 353 353 353 353 353 353 353 353 353 353 352 354 354 352 352 352 350 349 348
310 312 300 294 286 282 284 292 294 299 302 303 304 305 310 316 333 333 337 341 343 343 345 346 346 347 349 350 351 351 352 351 352 352 353 353 353 353 353 351 349 352 354 353 352 351 349 347 345
304 305 301 291 287 288 291 296 298 299 303 304 305 301 315 326 333 338 340 340 340 341 343 343 344 346 349 350 351 351 351 349 349 351 353 353 353 353 351 349 349 351 353 353 352 350 347 344 343
303 299 291 287 289 291 297 299 301 299 300 302 304 303 312 323 336 339 338 338 338 340 342 343 342 345 348 351 351 350 347 348 349 350 351 351 352 352 349 348 348 349 351 351 351 348 345 343 342
297 297 287 287 291 294 296 299 301 301 302 302 303 306 311 327 336 337 337 336 341 339 341 341 344 345 347 348 348 346 345 346 347 348 349 350 350 349 348 347 347 347 348 348 347 345 343 342 342
295 290 288 288 289 292 297 301 300 302 300 300 305 303 311 324 332 336 338 340 339 339 339 339 341 344 344 343 343 343 344 345 346 346 347 346 345 345 346 346 346 346 346 346 345 343 341 341 341
299 294 289 291 291 292 298 302 302 301 301 309 307 301 311 318 330 340 340 339 337 337 338 338 338 340 341 343 341 341 342 342 342 344 344 342 342 343 343 343 344 344 345 344 343 341 340 340 337
300 291 291 292 293 296 301 298 301 302 301 302 308 307 318 326 336 338 339 338 336 336 336 337 337 336 335 338 342 342 343 341 340 340 340 338 340 340 341 340 341 342 341 341 341 340 338 336 334
295 291 294 298 300 299 301 301 303 299 299 301 311 317 324 331 333 333 334 335 336 335 335 337 336 336 335 339 339 338 342 340 339 339 338 338 337 337 340 338 338 339 339 339 339 338 336 333 329
295 294 300 300 300 301 300 301 303 299 299 299 306 313 321 327 330 331 333 337 337 338 338 338 337 336 336 336 335 336 338 337 337 337 336 335 336 335 334 333 335 333 337 335 335 334 329 327 326
287 295 299 301 302 301 300 300 301 298 301 305 300 313 316 320 325 329 332 334 336 339 339 339 338 337 337 337 335 335 336 335 336 337 335 335 335 333 331 331 331 330 329 333 333 331 326 325 326
290 292 294 296 299 302 303 301 301 303 306 307 305 306 306 310 318 327 332 335 337 339 341 340 340 338 339 338 336 335 335 335 335 335 336 336 334 334 332 330 330 330 330 330 329 325 325 324 325
297 296 294 295 295 297 299 300 302 304 305 305 305 302 302 303 307 307 316 330 335 338 340 341 340 340 339 338 338 336 336 336 335 335 336 336 334 333 332 331 330 329 330 329 328 326 324 323 322
294 292 296 297 297 295 297 294 298 304 305 304 304 303 303 303 303 303 305 310 332 337 339 341 341 340 339 338 339 338 337 338 336 336 335 335 334 331 331 331 330 330 330 327 326 324 322 320 322
287 288 284 293 296 298 294 289 298 303 303 302 302 302 303 303 304 303 303 303 311 334 336 339 342 340 339 338 339 339 337 338 336 336 336 335 334 333 330 329 329 328 329 328 326 326 324 323 324
283 280 283 287 295 295 293 291 298 301 302 302 302 301 302 302 302 304 305 304 305 312 333 336 339 339 338 338 338 338 336 336 335 333 335 335 335 333 331 330 328 328 327 327 327 326 326 324 323
278 280 283 285 290 294 292 292 297 299 301 302 303 300 301 301 303 305 305 305 306 306 320 334 337 337 339 338 336 335 333 332 334 333 332 332 335 333 330 328 328 330 330 327 326 326 326 325 323
284 282 281 286 292 291 291 292 296 298 300 300 301 300 299 301 305 307 307 309 305 304 309 330 334 336 338 336 333 331 331 330 330 332 332 330 331 332 331 329 327 327 328 328 328 327 325 323 325
284 281 281 285 290 289 290 293 296 299 299 299 301 299 300 299 301 304 304 305 305 306 309 328 333 336 337 337 336 333 332 328 330 329 330 331 329 330 329 328 327 327 326 326 327 326 323 324 325
285 282 281 281 286 288 290 289 293 299 301 303 303 302 301 302 301 307 311 312 313 314 314 324 331 336 337 337 334 328 326 325 323 326 328 328 330 330 330 328 327 325 326 326 325 325 324 320 322
283 288 286 284 282 278 293 281 290 293 295 300 299 299 302 307 309 309 309 308 307 308 313 316 322 333 336 337 333 330 329 326 328 328 328 328 329 329 329 328 326 325 326 325 324 325 323 321 318
285 290 286 284 282 286 287 284 286 290 291 295 301 305 305 304 303 303 303 303 303 304 306 310 313 318 332 333 334 331 330 331 324 325 324 327 327 328 328 326 323 321 320 319 321 322 321 321 319
292 289 289 288 286 279 285 285 282 288 294 300 303 302 301 299 299 299 299 300 299 300 302 304 306 309 315 322 331 331 329 327 324 324 324 325 325 324 326 325 323 321 318 317 318 321 321 320 321
289 284 274 276 277 276 287 285 286 297 300 299 297 297 297 297 295 295 294 295 296 297 298 302 302 304 308 311 321 330 331 327 325 325 325 324 323 323 325 324 322 319 319 319 318 319 320 320 320
286 284 277 273 275 278 288 280 286 300 300 299 297 295 295 294 293 293 293 293 293 296 297 298 301 303 307 308 312 329 330 327 327 325 326 324 324 324 324 325 323 320 319 320 318 318 319 320 320
286 282 288 282 284 279 281 289 294 295 294 294 293 293 291 291 292 292 292 292 293 294 295 298 299 301 305 311 319 322 329 327 326 325 325 324 324 325 324 325 322 319 319 319 318 317 318 319 319
290 291 280 281 273 271 281 283 284 288 288 290 290 290 290 290 290 290 291 292 293 294 295 297 298 299 302 306 318 323 327 328 327 325 324 323 323 323 323 324 323 322 320 320 319 318 319 318 318
286 286 287 286 283 275 279 279 287 285 288 285 289 289 289 289 290 290 291 292 293 294 295 295 296 296 299 303 314 323 327 328 326 325 325 324 322 322 322 323 323 322 320 320 319 319 318 319 318
291 289 288 278 280 285 283 278 287 285 287 287 287 288 289 289 289 289 290 291 291 292 293 293 294 295 297 300 306 320 322 322 325 324 324 323 322 323 322 322 322 322 321 320 319 318 318 318 317

GFSSGP_sfc_thetae_117.txt.gz
Theta_e
315 313 309 303 290 286 281 287 289 291 293 297 300 300 302 308 311 304 332 339 341 342 347 348 349 350 351 351 351 351 352 352 352 352 353 353 353 354 354 354 354 354 354 352 352 352 351 350 350
309 312 304 296 285 279 281 289 291 293 298 301 302 304 305 312 326 330 331 340 341 343 346 347 348 349 350 351 351 351 353 352 352 352 353 353 353 354 354 353 353 353 354 352 352 352 350 350 348
309 309 298 292 284 282 281 289 292 296 299 299 298 303 308 315 331 331 336 341 341 342 345 346 347 348 350 349 350 351 351 351 351 351 352 353 353 353 353 352 351 353 353 352 351 350 348 347 345
303 303 299 290 287 287 288 291 296 297 299 299 299 298 311 327 332 335 340 342 340 342 343 343 344 346 349 350 350 350 349 349 349 350 352 353 353 353 352 349 350 352 353 353 350 348 347 344 343
302 298 289 286 288 290 292 296 297 298 298 300 299 298 310 329 336 336 338 340 339 340 342 343 342 345 348 350 350 350 348 347 348 349 350 351 352 352 350 347 348 349 352 352 350 347 345 343 342
295 295 286 285 289 291 294 298 299 299 299 300 299 299 313 328 333 334 336 336 339 338 341 342 344 345 346 348 348 346 346 346 347 348 349 350 350 349 348 347 347 348 348 348 347 344 343 342 341
292 290 286 287 288 290 295 298 297 298 298 299 301 299 310 329 334 335 332 335 336 338 339 340 342 344 344 343 343 342 343 345 345 346 346 347 346 345 346 346 346 346 346 346 345 342 341 341 340
298 292 287 288 290 290 297 299 301 298 298 305 303 298 309 322 333 336 336 334 334 336 337 337 339 341 342 343 341 340 341 342 343 344 343 343 342 343 344 344 344 345 345 345 343 341 340 340 337
298 290 289 289 289 292 299 296 298 300 298 300 303 303 314 328 337 334 333 331 331 334 334 336 337 338 340 343 343 341 342 341 341 343 342 339 340 340 342 341 341 342 342 342 342 340 338 335 333
293 287 292 295 296 297 300 301 301 299 299 299 302 313 324 334 333 332 331 329 329 331 333 334 335 336 336 341 342 343 343 340 338 340 340 340 337 337 339 339 339 340 340 340 339 338 337 333 329
294 292 296 298 298 298 296 298 299 298 298 299 300 304 322 329 331 331 332 332 330 331 333 334 335 335 335 337 339 339 340 339 334 334 336 336 336 335 335 334 336 335 338 335 335 335 331 328 326
285 292 294 297 299 298 297 298 299 299 301 304 300 302 312 325 329 330 331 332 332 332 332 334 335 335 335 335 336 337 337 338 338 336 334 337 335 332 331 331 331 331 331 331 330 332 327 325 325
287 289 291 293 293 293 295 295 298 300 305 305 306 306 304 311 327 331 332 333 335 333 334 334 335 334 334 334 333 334 335 336 337 337 336 337 336 335 330 329 330 328 327 333 331 330 325 323 324
292 290 290 292 294 295 292 293 294 298 303 304 305 304 302 307 309 316 325 329 334 336 336 336 334 334 334 334 332 333 333 334 333 334 336 335 336 334 331 329 329 327 328 327 329 326 324 323 323
290 285 287 289 291 293 294 290 292 298 300 302 303 305 302 302 308 310 317 327 332 336 339 337 335 335 334 334 334 333 333 333 332 332 332 334 333 332 331 330 328 328 328 325 324 322 321 320 321
285 284 279 287 290 292 293 287 295 299 297 299 301 304 303 303 301 302 312 323 326 334 336 340 340 337 336 335 336 335 334 334 334 334 334 334 333 331 330 330 329 328 327 326 324 325 324 319 319
280 277 280 283 288 290 289 288 295 297 298 298 299 302 304 302 301 301 301 304 318 332 335 338 339 338 337 336 336 336 335 335 335 335 334 333 333 332 330 329 328 327 328 327 326 326 326 323 322
278 277 278 278 284 288 288 288 294 296 297 297 298 300 304 304 302 304 304 303 303 317 333 337 339 338 338 338 334 334 331 334 334 334 335 334 334 332 330 329 326 327 328 328 327 326 326 324 324
284 282 280 282 286 285 284 285 289 293 296 296 298 300 301 303 304 304 306 306 302 300 308 331 334 337 337 335 332 332 331 332 332 333 334 334 334 332 330 328 326 328 329 328 327 326 324 323 324
283 282 281 284 287 286 283 283 288 291 295 297 298 297 299 303 304 307 312 312 310 311 307 316 331 335 336 337 335 335 334 330 332 328 329 332 332 331 330 328 326 328 329 327 327 326 324 324 324
281 279 282 283 286 285 282 280 284 290 296 299 301 302 300 300 307 307 305 303 304 305 307 314 325 331 335 337 336 327 327 326 325 327 329 329 330 330 330 328 327 327 328 327 327 327 324 321 323
279 285 285 286 284 276 286 275 286 291 293 296 297 299 301 302 303 302 301 300 300 301 304 307 312 322 332 334 333 328 329 327 329 330 331 329 329 328 329 328 326 326 327 326 327 326 325 324 320
283 287 287 285 283 279 279 279 282 290 289 295 296 296 295 295 296 296 297 298 298 299 300 303 306 309 315 323 333 330 327 327 324 325 328 327 327 328 328 327 325 325 326 328 326 324 324 323 321
289 288 288 286 282 272 279 281 283 289 293 293 293 293 293 293 293 293 295 296 296 297 298 301 303 305 309 313 316 330 329 326 323 322 325 326 325 326 327 327 326 325 325 322 322 322 323 322 320
286 283 275 271 271 275 284 282 285 292 292 292 290 290 291 291 291 291 291 292 294 294 296 299 301 302 304 309 311 315 330 328 326 325 325 325 325 324 325 326 326 325 322 319 319 321 321 320 320
282 283 277 271 274 277 286 281 286 292 293 293 292 291 290 290 290 290 291 292 292 293 295 296 298 300 302 305 308 312 317 330 328 328 327 325 325 325 326 326 325 324 320 320 321 320 319 319 319
285 280 286 280 283 278 283 287 289 289 289 287 289 290 289 290 290 290 291 292 293 293 294 295 296 298 300 301 304 308 317 325 327 326 326 326 325 325 323 326 324 322 320 321 319 318 317 318 319
289 290 280 280 275 274 280 280 279 283 285 286 285 287 289 289 289 290 290 291 292 293 294 294 296 296 297 299 302 307 316 321 328 325 324 325 325 324 323 325 324 321 320 320 318 317 317 317 318
287 284 285 286 284 277 276 277 285 283 285 284 285 286 288 288 288 289 289 291 292 293 292 293 294 294 295 297 300 304 308 323 327 325 324 324 323 323 322 324 323 321 319 319 317 317 317 316 317
291 286 286 278 279 284 279 276 287 285 286 286 285 286 287 288 288 288 288 289 290 290 291 291 292 293 294 296 298 300 303 308 325 324 323 322 321 322 322 323 323 322 321 319 318 316 317 316 316

GFSSGP_sfc_thetae_123.txt.gz
Theta_e
318 315 315 308 297 296 290 292 295 296 298 302 302 302 303 307 314 308 337 341 343 347 350 351 349 350 351 351 351 351 353 354 354 354 353 353 354 355 355 354 354 354 355 353 352 352 351 351 351
313 313 311 303 293 289 291 294 294 298 300 302 303 304 305 306 316 327 336 342 345 347 349 351 348 349 350 350 350 351 353 354 353 353 353 353 354 354 354 353 352 353 354 353 352 352 351 350 348
313 311 305 300 291 290 291 292 297 298 300 300 301 305 304 310 328 335 340 343 346 347 349 351 347 348 350 350 350 350 351 351 351 352 354 354 354 354 354 351 351 353 354 353 352 352 350 348 346
310 311 304 295 291 293 292 296 297 299 302 302 302 301 307 317 331 338 342 344 345 346 348 347 345 347 349 350 350 350 349 349 349 351 353 353 354 354 352 350 351 352 353 351 350 350 348 345 344
308 304 294 293 292 295 298 299 300 300 301 302 302 301 304 313 338 341 342 344 345 346 348 350 343 346 348 350 350 349 348 347 348 350 351 352 353 353 351 349 349 350 351 350 349 348 345 344 343
300 302 292 289 291 295 298 301 301 300 302 303 301 301 306 324 335 341 343 344 346 347 348 350 346 346 346 348 348 346 345 346 347 349 350 351 351 350 349 349 348 349 348 348 347 344 343 343 342
296 296 291 291 292 294 299 303 301 302 301 302 304 301 307 315 334 340 341 344 345 346 348 349 350 349 344 343 343 342 343 344 345 346 347 347 347 346 347 347 348 348 347 346 344 342 341 342 341
301 299 292 292 293 295 299 301 303 301 302 307 306 302 304 313 328 338 340 341 343 344 346 347 348 350 351 351 341 340 341 341 342 344 344 343 343 344 344 344 346 346 346 345 343 341 340 340 338
303 296 292 294 294 297 301 300 304 306 305 305 307 308 311 332 335 335 336 337 339 341 344 346 346 348 349 348 347 342 342 341 341 343 342 341 350 350 348 344 342 344 344 343 341 340 338 337 336
299 294 294 299 299 298 301 300 300 301 302 302 306 309 312 320 333 331 332 334 335 337 339 343 345 345 346 344 345 348 348 347 348 348 349 349 350 350 347 344 340 341 341 340 340 339 336 337 342
296 293 297 298 299 295 295 295 299 297 296 302 301 304 308 309 313 324 331 332 333 336 339 340 342 344 343 342 343 345 345 344 345 347 348 349 348 349 348 349 346 348 342 345 342 342 342 339 338
288 291 292 293 293 292 291 294 294 296 297 301 301 303 304 305 306 310 323 334 332 332 336 339 341 341 341 342 340 341 341 341 341 341 343 343 343 346 347 346 347 346 346 345 344 342 338 342 340
292 292 291 292 292 292 293 291 292 293 298 301 302 302 303 305 308 311 318 327 335 332 333 337 338 338 337 339 340 340 339 340 340 340 342 342 342 341 344 345 345 346 346 344 342 340 341 340 339
290 290 290 292 291 292 290 291 291 294 298 299 300 300 302 303 306 308 310 320 334 335 334 336 338 339 339 338 339 338 339 340 340 340 341 342 343 340 340 341 343 342 344 343 342 339 339 339 338
291 287 290 290 290 290 291 288 289 296 296 297 299 301 303 304 306 307 310 312 324 334 338 335 337 339 339 338 338 337 337 337 338 338 340 341 341 341 339 337 340 342 341 341 339 336 334 338 336
287 287 282 288 290 290 290 283 290 294 294 294 295 298 301 302 305 307 310 312 317 328 338 337 336 338 338 339 338 337 337 336 335 336 337 337 339 339 337 335 336 340 337 335 332 330 330 335 335
284 281 282 285 290 290 288 285 290 294 293 293 295 295 296 301 303 306 309 311 315 327 336 338 337 336 338 339 338 339 338 335 334 335 335 335 337 338 335 335 335 338 337 334 331 329 330 328 329
280 281 283 282 287 288 286 286 290 293 293 293 294 295 296 297 301 306 309 310 311 319 335 340 339 339 338 337 337 337 337 337 338 336 337 337 335 335 336 336 335 335 333 333 332 331 330 330 329
285 283 281 284 288 286 285 285 288 291 292 293 295 295 295 296 301 308 312 312 310 313 322 337 339 339 337 335 334 334 333 335 336 336 338 338 339 335 337 335 334 333 333 332 332 330 327 327 328
284 281 281 285 288 287 286 285 288 290 291 294 294 294 295 296 299 306 307 306 307 308 311 315 329 340 338 337 337 337 337 337 337 337 336 338 338 338 338 336 333 332 332 332 331 329 326 327 327
283 282 283 282 286 288 286 284 287 292 294 296 296 296 296 296 297 298 301 302 303 304 306 310 314 321 339 341 339 338 338 337 334 334 334 334 337 338 338 337 334 332 333 330 329 328 329 324 327
281 287 285 284 283 278 286 276 285 290 292 293 292 292 292 293 295 296 297 299 300 301 304 309 315 319 324 335 338 335 334 331 334 333 333 333 337 338 338 336 334 333 333 333 331 332 333 331 325
284 288 286 285 283 282 282 280 284 289 285 288 290 290 291 292 293 294 295 297 298 299 301 306 312 313 315 323 329 335 334 338 338 337 334 333 335 337 337 335 333 333 333 333 331 331 332 331 329
289 286 286 286 283 276 282 281 281 281 283 286 288 289 290 291 292 293 294 295 296 298 300 303 305 306 309 312 313 317 331 334 332 335 333 332 334 333 333 333 333 332 331 332 331 332 333 331 329
287 283 277 276 277 276 285 281 281 285 286 286 285 287 289 290 291 292 291 292 293 294 296 298 300 300 304 305 307 309 312 315 323 334 333 332 331 330 330 331 330 331 331 331 331 330 333 332 330
285 284 278 271 274 276 284 279 280 287 288 287 286 287 287 288 290 290 291 291 292 293 294 295 297 297 300 301 303 306 309 311 315 319 327 331 330 332 331 331 332 332 330 330 330 329 329 329 329
284 281 286 280 281 277 281 282 286 285 284 285 285 285 284 285 287 289 290 292 293 293 294 294 295 296 298 299 302 302 305 306 307 311 316 326 332 333 333 332 330 332 331 329 329 328 327 326 326
289 290 282 282 274 274 279 277 276 280 281 283 283 283 284 285 285 286 288 289 291 292 293 293 294 292 294 296 298 299 300 302 304 308 313 321 327 330 331 331 332 332 331 328 326 324 325 324 324
287 285 286 286 283 277 276 275 283 281 282 282 282 283 283 284 284 285 286 288 289 290 291 291 291 292 292 293 295 296 297 299 301 302 304 308 323 327 327 329 329 329 328 326 323 323 324 323 322
292 288 288 281 280 283 280 275 285 284 283 284 282 283 284 284 284 284 285 285 287 287 289 289 290 291 292 292 293 294 295 296 297 298 300 302 305 326 326 326 327 328 327 325 322 321 322 321 320

GFSSGP_sfc_thetae_129.txt.gz
Theta_e
325 323 321 315 305 304 301 302 306 304 305 310 311 308 307 308 308 308 333 348 349 346 356 353 349 351 352 353 354 355 355 355 355 354 354 354 354 355 355 355 355 356 356 353 353 352 351 352 353
323 318 318 313 302 301 303 307 304 306 308 309 308 308 307 308 316 322 329 343 347 347 355 354 348 350 351 352 353 354 356 356 354 354 354 354 354 355 355 355 354 355 356 354 352 352 351 351 351
320 319 313 308 305 301 303 306 306 307 307 308 307 310 309 309 319 327 335 343 346 348 354 353 347 348 350 351 352 354 355 354 353 353 354 355 355 355 355 353 353 355 355 354 352 352 350 349 348
318 316 313 304 302 307 306 306 307 307 310 310 309 308 312 317 323 329 338 349 347 349 352 347 345 347 349 350 352 353 352 351 351 352 354 355 355 355 354 351 352 354 355 355 353 351 349 346 346
317 314 306 304 304 308 310 310 311 309 310 310 311 309 311 318 325 333 338 349 347 349 353 354 344 346 348 350 352 351 350 350 351 352 353 354 354 354 352 350 351 353 354 354 353 349 346 345 345
310 311 303 301 305 309 310 311 311 309 311 312 311 311 312 323 328 332 340 347 349 350 354 357 347 346 347 348 348 348 348 348 349 351 351 353 352 351 350 350 350 351 350 349 349 346 345 344 344
306 306 302 303 304 306 308 312 310 309 310 310 313 308 315 319 325 331 340 348 353 352 355 359 353 350 344 344 344 343 345 346 347 348 349 349 348 348 349 349 349 350 347 347 347 344 343 343 343
310 306 301 303 302 303 309 309 311 309 308 314 314 309 311 318 322 322 328 341 350 354 355 357 353 352 351 351 342 341 342 343 345 346 346 345 345 346 346 347 347 348 347 346 345 343 342 342 341
310 301 299 301 302 304 308 305 310 312 309 310 313 313 316 319 320 319 320 322 338 349 353 356 353 353 352 351 348 342 343 343 343 345 344 343 350 351 350 346 344 346 345 344 343 341 341 340 338
303 299 300 304 305 304 306 305 306 305 306 307 309 313 316 316 315 314 315 317 320 332 348 352 353 353 352 350 352 349 348 347 348 349 351 350 350 350 347 345 342 343 343 342 341 340 339 338 343
301 297 302 302 303 304 302 301 304 301 300 304 304 306 309 309 309 310 312 316 318 321 339 350 352 354 353 351 350 350 349 348 349 350 351 351 349 352 349 349 348 349 344 346 342 342 343 342 342
295 299 299 300 301 300 298 300 299 300 301 304 305 305 305 306 308 309 311 313 315 318 326 345 350 352 355 350 347 348 349 350 349 349 354 352 349 353 350 347 349 348 347 345 344 342 343 343 344
297 299 300 301 300 299 300 298 298 299 303 304 304 304 305 306 307 309 311 313 315 315 319 329 348 350 353 354 348 348 349 347 349 350 352 352 347 351 349 349 348 346 347 344 345 343 342 343 342
299 298 298 299 299 300 297 298 299 300 303 302 302 302 304 304 305 306 307 309 312 316 317 325 339 349 349 350 353 350 350 348 348 349 349 354 350 353 348 347 348 347 347 347 346 343 341 342 341
298 295 298 299 298 296 299 294 297 301 302 301 301 302 303 304 306 306 307 309 310 312 316 324 337 347 347 351 349 348 345 347 348 347 350 350 351 352 350 348 347 346 349 349 347 345 344 341 341
296 297 293 297 297 299 296 291 298 302 300 299 301 302 303 304 305 306 308 309 310 310 313 320 322 344 350 347 347 346 345 347 344 346 347 345 349 351 350 346 347 348 348 347 346 343 342 341 339
297 291 293 294 299 297 295 292 298 301 300 299 300 301 302 303 304 306 308 309 310 310 311 316 323 327 348 348 347 348 348 346 345 345 345 347 346 349 347 343 344 350 345 346 344 343 342 338 338
290 290 292 291 296 296 294 294 297 299 299 299 301 303 304 305 306 309 310 311 310 311 316 321 323 327 344 347 346 345 346 345 345 343 343 347 345 345 348 344 343 344 344 342 342 339 340 339 337
292 290 290 293 296 294 293 293 296 298 300 301 302 302 302 303 305 307 308 310 311 315 316 318 320 325 328 342 340 342 340 342 343 342 343 346 345 344 343 343 341 340 340 340 340 337 337 336 338
291 290 290 294 295 294 293 292 296 298 300 300 298 298 299 299 299 301 303 306 309 311 314 315 316 319 323 336 342 343 342 342 343 342 343 343 345 346 341 341 342 339 337 339 337 336 334 337 337
292 291 291 290 293 294 293 291 293 296 299 299 298 297 297 295 293 296 298 300 302 304 307 309 313 318 322 327 338 339 344 342 341 340 340 342 345 344 341 340 343 339 339 339 336 336 334 331 333
289 294 292 290 289 286 293 283 292 295 295 294 294 294 292 292 292 293 294 295 297 300 302 303 308 314 322 325 326 337 336 336 338 338 340 340 344 343 343 341 343 342 341 340 340 335 334 333 328
290 294 292 291 290 290 290 287 290 293 288 289 290 290 290 290 291 290 291 292 295 298 298 300 304 309 314 315 321 337 334 338 337 337 337 341 343 343 343 342 343 344 344 342 343 336 333 334 333
295 293 294 293 291 284 289 288 287 285 284 287 288 289 288 289 290 290 290 291 292 295 296 298 300 303 310 311 313 325 336 332 329 330 334 338 339 339 340 342 342 344 345 342 341 341 333 335 335
294 292 286 284 284 283 290 287 284 287 288 287 286 287 288 288 288 289 287 287 289 291 293 297 298 298 303 307 308 312 318 323 323 320 322 333 336 336 338 339 339 340 343 341 340 339 337 335 335
292 291 285 278 280 283 290 285 284 290 290 290 289 288 288 287 287 287 287 286 287 288 292 295 297 297 299 304 304 307 310 315 317 318 320 321 324 328 338 339 339 337 335 335 336 338 337 336 337
292 288 294 286 288 284 288 284 289 291 288 287 286 286 285 285 286 286 287 285 286 287 289 292 296 297 298 299 301 303 305 306 308 310 311 314 316 318 324 331 336 337 335 333 333 333 337 336 335
294 296 287 287 279 279 286 284 285 284 283 284 284 283 284 285 285 286 286 285 286 286 288 291 294 295 296 298 299 300 300 302 303 304 304 306 310 311 316 320 331 336 335 333 331 331 333 334 334
292 290 290 291 288 282 281 282 285 282 284 283 284 284 283 284 284 284 285 285 285 285 287 288 291 293 295 296 297 297 297 299 299 298 298 300 302 303 304 307 308 327 332 333 331 329 330 328 331
294 291 291 286 285 288 287 282 287 286 285 285 284 284 284 285 284 284 284 285 284 285 285 286 290 291 293 294 294 293 296 296 296 296 295 296 296 298 298 298 299 298 298 298 302 321 328 328 328

GFSSGP_sfc_thetae_135.txt.gz
Theta_e
319 316 312 309 294 292 288 293 297 296 297 300 303 302 298 299 302 310 328 340 348 346 348 350 350 352 353 354 353 353 354 354 354 354 353 353 354 354 354 355 355 356 356 353 353 354 354 354 351
317 315 309 301 291 286 289 296 294 297 301 304 305 304 301 307 318 322 327 340 348 347 346 349 349 351 353 353 352 353 354 354 354 354 354 354 354 354 354 354 353 354 355 354 353 352 353 352 348
315 313 300 296 291 289 290 295 297 300 306 305 303 306 305 307 321 323 333 344 345 347 346 349 347 349 351 352 352 352 352 352 352 353 354 354 354 355 354 352 351 354 355 355 352 352 351 348 346
311 305 301 293 291 297 298 302 300 304 305 306 306 303 312 322 323 330 337 346 348 348 348 344 345 347 350 351 352 352 351 350 350 351 353 354 354 354 353 350 351 353 354 354 354 350 347 345 344
308 301 293 291 294 299 304 304 305 304 305 308 306 305 312 318 322 336 338 347 347 346 346 346 344 346 350 352 352 351 349 348 349 351 351 352 353 353 351 349 351 352 352 353 351 347 345 344 344
299 299 290 288 294 300 303 305 307 306 306 307 306 308 310 315 315 326 340 343 350 347 345 346 346 346 347 349 349 348 347 347 348 349 350 351 351 350 349 349 350 350 351 349 347 345 344 343 343
296 293 289 291 293 296 301 305 303 304 305 306 307 303 309 312 313 313 323 342 347 350 346 345 344 346 345 344 345 344 346 346 347 347 348 349 348 347 347 348 349 349 349 347 345 343 342 342 342
299 295 292 293 294 294 302 304 303 301 302 309 307 301 302 306 309 307 307 308 342 347 348 344 343 343 342 341 342 342 343 344 345 346 346 345 345 345 346 346 347 347 346 346 344 342 341 341 340
298 289 289 292 292 294 301 299 300 299 298 301 304 303 301 305 304 303 303 304 307 338 346 344 343 343 342 341 342 342 344 343 343 344 344 341 345 345 345 344 344 346 344 344 343 341 339 338 338
292 287 291 297 295 295 298 297 298 295 295 297 299 302 302 303 301 300 301 302 303 305 315 343 343 342 343 345 341 339 342 342 343 344 345 344 343 344 346 343 341 343 342 342 340 339 338 337 336
292 290 295 296 296 296 295 294 297 294 292 296 296 298 300 301 300 301 301 300 299 302 305 336 344 344 343 343 341 340 340 340 342 343 343 343 344 343 343 341 341 342 341 340 338 337 337 336 335
290 295 295 296 297 294 293 295 293 291 296 300 298 299 300 299 299 300 300 301 301 301 304 305 325 343 342 344 343 340 339 340 340 342 343 343 341 340 339 340 340 341 341 337 336 335 335 335 336
291 294 296 297 297 295 296 293 294 295 299 300 300 300 298 298 299 301 304 305 306 306 307 310 308 320 337 342 343 342 340 340 340 341 343 343 341 339 339 340 341 341 340 340 335 335 335 335 335
296 295 295 295 295 295 294 293 294 295 298 300 300 297 295 299 301 302 302 302 303 305 306 308 312 314 316 325 341 344 342 342 341 341 342 344 341 339 341 339 341 341 340 339 337 335 334 334 334
296 291 293 294 294 293 294 289 291 297 300 298 298 299 301 301 301 299 300 299 301 302 304 306 308 310 313 316 319 329 344 343 342 342 342 344 342 340 341 340 339 340 339 337 336 334 334 332 333
291 290 285 294 295 294 292 285 294 296 296 295 298 299 299 298 298 298 298 298 298 299 300 302 306 307 310 311 316 320 325 340 341 343 343 343 344 341 340 340 340 339 339 338 337 333 331 332 331
288 283 286 289 294 292 290 286 293 295 296 296 295 295 295 295 295 296 296 296 296 297 298 299 301 303 306 308 311 315 320 327 341 341 343 343 343 342 341 341 340 340 339 337 337 332 331 329 329
284 284 283 283 288 289 286 285 290 294 295 293 292 292 292 292 292 295 295 296 295 294 296 297 299 300 302 304 307 310 317 321 332 339 340 340 343 342 342 339 340 340 338 337 336 333 331 330 329
289 286 284 286 291 290 288 286 289 293 292 290 290 290 289 290 292 293 294 294 293 293 293 295 296 297 299 300 301 305 306 316 321 330 339 340 341 342 341 339 337 339 337 336 336 332 330 328 329
289 286 284 289 293 290 286 285 290 292 290 290 289 288 288 288 289 291 291 291 291 291 291 292 293 295 296 299 301 303 307 313 317 322 329 340 341 340 340 340 337 337 337 334 334 333 327 327 328
287 286 286 287 289 288 286 284 288 291 291 291 290 289 288 287 287 288 289 289 289 289 289 290 291 294 296 298 301 303 307 310 313 317 327 335 339 340 337 337 339 336 335 333 335 335 333 328 326
285 292 291 289 286 279 287 276 286 288 287 288 287 286 285 286 287 287 287 287 287 288 289 289 290 293 296 300 299 300 302 304 308 314 319 325 337 339 338 336 339 338 334 333 332 335 333 330 325
289 294 291 289 285 283 285 279 284 288 284 285 285 287 286 285 285 285 286 286 287 287 287 288 290 292 293 299 300 300 302 308 309 315 320 327 332 338 338 336 337 335 335 332 332 332 332 331 328
295 291 290 289 285 277 285 283 280 281 284 285 286 287 286 285 286 286 287 287 286 287 287 287 289 290 292 295 299 300 303 306 309 314 321 324 327 333 337 337 337 335 334 332 331 332 332 331 329
291 286 278 276 276 277 288 283 280 285 285 285 284 285 285 285 285 285 285 284 285 286 287 287 288 288 290 292 298 300 302 303 311 315 319 318 317 316 315 326 324 327 333 333 332 332 333 332 330
288 288 279 275 276 279 288 280 281 286 287 287 286 285 285 285 285 284 284 284 284 285 287 287 287 287 288 290 295 299 300 301 307 306 306 308 314 310 309 307 314 311 312 332 333 332 333 332 331
290 286 292 285 284 278 280 283 286 287 285 285 284 284 283 284 284 283 283 284 284 285 286 286 286 286 287 289 294 297 298 299 300 300 300 300 301 305 304 301 302 305 304 305 319 329 328 330 329
292 294 283 284 277 275 277 279 277 281 282 283 282 281 283 284 280 282 283 283 285 285 286 286 286 285 286 287 293 294 297 298 298 297 295 296 296 297 297 297 297 298 299 300 304 307 309 318 324
289 287 288 288 283 275 269 276 285 279 283 281 282 283 282 283 281 281 282 283 285 285 285 285 285 285 285 286 289 291 294 295 295 294 293 293 293 293 293 293 293 294 295 299 301 302 304 306 308
294 291 290 280 281 284 278 275 286 283 284 283 282 283 284 284 282 280 282 282 283 284 284 285 285 285 285 285 287 288 293 291 291 291 292 292 291 291 291 291 290 291 292 296 297 297 297 297 297

GFSSGP_sfc_thetae_138.txt.gz
Theta_e
318 312 309 306 293 290 287 291 294 293 294 297 301 303 304 303 314 308 327 344 346 345 348 350 350 352 353 353 352 352 353 353 353 353 352 353 354 353 353 354 354 355 355 353 353 352 353 350 350
316 313 306 298 290 285 288 293 291 295 300 303 304 302 305 310 320 325 332 340 346 345 347 348 349 351 352 352 351 352 353 353 353 353 353 353 354 354 354 353 352 354 355 353 353 352 353 350 348
312 312 299 294 287 286 288 294 296 299 303 303 302 310 309 312 322 327 333 345 347 344 347 348 348 349 351 351 351 351 352 352 351 352 353 353 354 354 353 351 351 353 355 353 353 351 350 347 345
308 302 299 292 289 293 295 300 303 301 303 305 307 308 314 322 327 332 343 348 344 344 347 344 344 347 350 351 351 351 350 349 349 350 352 353 354 354 352 350 351 353 354 354 353 349 347 345 343
305 298 292 290 292 296 300 301 303 302 304 307 309 305 307 313 333 336 342 347 345 344 345 345 342 346 349 351 351 350 349 347 348 350 351 352 353 352 350 349 350 351 352 353 351 347 345 343 342
297 295 288 287 292 297 298 299 303 304 304 305 306 306 306 310 312 328 336 345 345 343 344 345 345 345 347 349 349 347 346 346 347 348 349 351 350 350 349 348 349 349 349 349 346 344 344 343 342
294 290 287 288 291 294 298 301 296 299 298 303 306 301 303 302 304 307 310 335 346 344 342 342 343 345 344 344 344 343 344 345 345 346 346 347 346 346 347 347 348 349 348 347 344 343 341 342 341
296 293 290 288 292 291 299 301 299 295 297 303 303 295 294 299 302 302 303 305 317 344 345 341 340 342 342 342 341 342 343 342 343 344 344 343 343 344 345 345 346 347 347 346 343 341 340 340 339
295 288 285 288 290 292 297 296 297 296 295 298 301 297 299 301 302 301 301 301 302 306 311 343 340 341 340 339 342 342 343 342 341 343 342 341 345 344 344 343 343 345 344 343 342 340 339 337 337
290 286 288 294 292 292 296 297 296 294 294 296 298 301 301 300 299 299 300 301 304 305 307 310 315 334 341 343 340 339 342 342 342 344 344 345 343 343 345 342 341 342 341 341 340 339 337 336 335
289 289 293 293 292 294 294 294 296 292 291 294 296 297 299 300 302 301 302 302 302 305 307 309 311 314 317 332 341 337 339 341 341 342 345 343 343 341 342 341 341 341 340 339 338 336 335 334 333
288 292 293 291 292 292 293 293 293 292 294 298 294 297 300 299 299 299 300 300 301 302 303 305 308 310 312 318 321 335 339 338 340 342 343 342 341 340 339 340 339 340 341 337 335 334 333 333 334
290 293 295 295 294 292 295 292 292 293 297 298 299 300 298 298 298 298 298 298 298 298 300 302 303 307 308 312 315 318 322 338 338 341 342 343 342 339 339 338 338 340 341 337 333 333 333 333 332
293 293 293 294 293 293 292 292 292 294 297 299 300 297 296 296 296 295 295 295 296 297 297 299 300 302 304 306 308 312 319 322 337 338 341 343 342 340 339 338 338 339 340 339 335 333 332 331 332
294 290 292 293 293 292 293 288 290 296 298 298 298 296 295 294 294 293 294 294 294 294 295 296 298 300 300 303 305 307 313 318 322 337 339 341 341 340 339 338 338 339 340 338 336 333 332 330 330
289 288 284 292 292 293 292 284 292 295 296 293 294 294 293 293 293 293 294 294 293 293 293 294 297 296 297 299 301 305 308 313 321 327 339 340 342 340 339 339 339 340 339 338 336 334 332 331 330
285 280 284 288 291 290 289 285 291 295 293 291 290 290 290 290 291 292 292 292 292 292 292 292 294 294 295 297 299 302 304 309 313 320 323 334 341 341 339 340 339 339 338 337 336 334 333 330 329
281 282 281 281 285 288 285 284 289 292 291 289 288 288 288 288 289 291 291 291 291 290 291 291 292 293 293 295 297 300 302 305 307 314 322 322 329 341 339 340 339 339 338 337 335 333 332 329 329
287 284 283 282 289 287 286 284 286 289 288 287 286 286 286 287 289 290 290 290 289 289 289 289 290 290 291 292 294 296 298 301 305 310 315 317 323 330 338 338 338 338 337 336 335 333 329 326 327
287 284 283 286 290 287 284 283 286 288 287 286 285 285 285 286 286 288 288 288 287 287 288 288 288 290 291 292 294 297 299 301 305 307 312 317 320 328 336 337 337 338 337 336 334 333 329 329 329
286 284 284 285 288 286 285 282 285 288 288 288 287 286 285 285 284 285 286 286 286 286 286 288 289 290 291 293 295 298 300 300 301 304 307 312 317 320 331 335 338 337 338 334 334 334 332 329 325
284 289 290 288 284 280 286 276 283 285 285 285 286 284 284 285 285 285 285 285 284 285 287 288 289 289 291 292 293 295 297 297 300 304 307 308 314 321 324 330 336 337 337 336 335 336 334 332 327
287 292 290 289 284 282 283 279 280 287 283 283 284 285 284 286 284 284 284 284 285 285 287 288 289 289 290 291 292 293 297 300 303 306 306 308 312 318 326 329 333 335 337 337 335 335 334 332 330
293 290 290 287 283 277 284 282 279 279 282 283 285 285 285 285 285 285 284 285 285 286 287 287 288 289 290 290 291 294 297 299 301 302 304 308 313 321 321 320 320 329 335 335 334 334 335 332 330
290 286 276 276 275 277 288 282 279 283 284 283 283 284 284 285 284 283 282 282 284 284 286 287 287 287 288 289 290 294 297 298 299 303 306 311 316 312 312 315 317 316 313 330 333 331 330 329 330
287 286 279 276 276 278 286 280 278 285 285 286 285 285 285 283 282 281 281 282 284 284 285 285 286 287 287 289 289 293 295 297 299 300 301 303 309 306 306 308 312 312 310 313 317 327 327 327 328
287 283 291 283 284 277 279 281 284 285 284 285 283 283 283 279 280 280 281 282 284 284 285 286 286 286 287 288 288 290 291 292 296 296 298 299 301 301 300 301 303 305 308 307 311 311 313 319 328
291 294 283 284 277 274 278 278 275 282 281 283 282 281 283 282 278 280 280 282 284 284 286 286 286 285 287 287 287 289 289 290 293 293 292 294 295 296 295 296 297 299 301 303 305 306 307 305 304
288 286 287 287 283 277 271 275 284 281 280 278 281 282 282 282 275 278 279 281 284 284 284 285 285 285 285 286 287 287 287 288 289 291 290 291 293 292 291 293 294 295 295 297 298 298 298 298 299
293 288 288 281 281 282 276 276 283 281 282 283 282 283 284 283 277 278 277 280 281 282 283 284 284 284 285 285 285 286 286 285 286 287 288 289 288 289 289 290 290 292 292 292 292 292 293 293 294

GFSSGP_sfc_thetae_141.txt.gz
Theta_e
319 312 307 302 293 289 286 289 291 293 293 297 303 309 306 309 312 309 327 341 344 344 347 349 349 351 351 351 351 351 352 353 352 352 352 352 353 354 354 354 354 354 354 352 352 353 351 349 350
317 312 303 296 289 285 287 291 294 296 297 302 306 305 309 310 319 325 333 340 344 345 347 348 349 350 352 350 351 351 353 353 352 352 352 353 353 353 353 353 353 353 354 352 352 353 350 349 348
308 308 299 292 286 285 286 294 297 301 302 300 303 312 311 312 324 327 338 344 344 344 346 348 347 348 350 350 350 351 351 351 351 351 353 353 353 353 353 351 351 353 354 352 352 352 350 347 345
307 302 298 291 289 291 292 296 297 299 303 308 309 304 314 319 329 335 345 344 342 344 345 344 345 347 350 350 350 350 350 348 349 350 352 353 353 353 352 350 351 353 354 353 351 350 347 344 343
301 296 291 288 289 293 295 296 300 301 303 305 304 298 302 306 318 326 343 345 342 342 343 344 342 346 349 351 351 350 348 347 348 349 350 352 353 352 350 349 350 351 352 352 350 347 345 343 342
296 294 287 286 289 294 296 297 297 300 304 304 299 299 300 306 303 305 330 343 343 342 342 343 345 345 346 348 349 347 346 346 346 347 349 350 350 349 348 348 348 349 350 349 346 344 343 342 341
293 289 287 287 289 291 296 298 294 295 294 296 303 297 299 298 300 303 306 310 310 313 333 341 341 342 343 342 342 343 344 344 345 345 346 347 346 345 347 347 348 348 348 347 344 342 341 341 341
294 291 287 287 289 289 295 298 297 294 294 300 298 292 292 297 300 301 306 306 308 309 309 312 314 317 337 340 340 340 342 342 342 344 343 343 343 344 345 344 346 347 347 345 343 341 340 340 339
293 287 284 287 287 289 294 293 295 294 294 296 298 295 298 302 304 304 303 304 305 306 306 308 309 311 314 327 341 342 341 341 341 342 342 340 342 342 343 343 343 345 344 344 342 340 338 337 337
289 285 287 291 290 289 293 294 294 293 293 294 296 300 303 303 302 300 299 299 300 301 302 304 304 308 310 318 321 329 339 340 340 342 341 344 344 341 343 342 341 342 342 341 340 339 337 336 333
286 286 289 292 292 291 292 292 295 291 289 292 294 297 298 298 297 297 297 297 297 298 299 300 302 305 306 310 315 317 321 330 340 340 342 343 342 342 342 341 341 342 341 339 338 336 334 333 331
285 290 290 289 293 293 290 290 291 288 292 297 297 298 296 295 294 294 294 294 294 295 296 297 299 300 302 305 307 311 316 320 323 338 341 342 340 340 340 341 341 341 341 339 336 334 332 331 332
287 290 292 292 293 292 294 291 290 291 297 298 297 296 294 293 293 294 294 294 293 292 294 295 296 298 299 300 303 305 308 315 320 323 339 342 341 339 339 339 339 340 341 339 336 332 332 331 330
291 291 291 292 292 292 291 291 292 294 298 296 295 292 292 292 292 292 292 291 291 292 292 293 294 296 296 297 298 300 304 310 312 319 324 332 341 340 340 338 338 338 339 338 337 334 331 331 330
292 288 290 290 290 291 292 286 287 296 297 294 293 292 291 291 291 290 291 290 291 291 291 292 293 294 294 293 295 297 301 304 306 315 321 323 331 339 339 339 338 338 339 337 336 333 330 329 328
288 287 283 289 290 289 289 282 291 294 292 290 290 290 290 290 290 290 291 290 290 289 290 291 292 292 292 292 294 296 298 301 303 309 312 318 322 327 339 338 338 338 338 337 335 334 332 329 328
284 279 282 286 289 287 286 282 289 291 291 288 287 287 288 288 288 289 290 289 289 288 289 289 290 290 291 292 293 295 297 299 302 305 307 313 320 323 320 334 337 338 338 337 335 334 333 330 328
280 280 280 280 284 286 283 282 286 288 287 286 285 285 285 286 287 289 289 289 288 288 288 289 289 290 290 291 292 294 296 297 301 303 305 309 314 317 320 321 333 338 338 337 336 334 333 331 330
285 282 281 283 287 285 283 283 284 286 286 284 284 283 284 285 287 288 288 288 287 287 287 288 288 289 290 289 289 291 293 296 299 302 305 306 308 315 320 319 325 336 335 336 336 334 331 328 329
286 283 282 285 288 286 283 281 283 285 284 284 283 283 283 284 285 286 286 286 286 286 286 287 288 289 290 290 291 291 293 296 299 301 302 305 307 313 320 322 321 332 334 334 334 333 331 329 328
285 283 283 283 285 284 284 280 283 286 286 286 285 284 284 284 283 284 285 285 285 284 285 287 288 289 290 291 291 292 294 296 297 299 301 303 307 309 312 316 316 321 330 331 334 334 332 329 327
283 288 287 286 283 278 283 276 281 284 283 284 283 282 282 283 284 284 283 283 283 285 286 287 288 288 290 291 290 290 290 291 296 298 301 304 307 307 310 315 319 317 326 327 331 334 333 330 326
286 290 289 287 283 280 281 278 278 284 282 282 282 283 283 283 283 283 282 283 285 286 286 287 287 288 289 290 290 290 290 294 297 300 302 302 304 307 309 312 316 320 321 329 327 329 332 332 329
292 289 288 285 282 276 281 281 277 279 282 282 283 284 284 283 282 282 283 283 285 286 286 286 286 287 288 289 290 290 290 293 294 297 299 301 305 309 312 314 319 320 320 320 327 331 332 333 332
288 284 276 275 274 276 285 280 278 282 283 283 282 282 284 282 281 280 280 281 283 284 285 286 286 286 287 288 288 289 290 291 292 296 298 300 302 308 308 313 316 314 316 321 325 329 331 332 331
286 287 280 274 275 277 285 278 278 284 285 285 284 284 285 280 280 279 280 281 283 284 285 285 285 285 286 287 288 289 289 289 292 293 293 297 298 301 302 309 313 311 315 316 322 328 320 328 326
285 283 288 283 281 277 279 279 284 284 283 283 283 283 280 282 278 279 280 281 283 283 284 285 285 285 286 286 287 288 288 288 289 290 290 292 295 298 300 304 305 306 307 308 310 315 310 311 309
290 290 283 281 276 274 274 276 277 281 282 281 275 276 283 283 276 278 279 280 283 282 283 284 285 284 285 286 287 287 287 287 288 287 287 288 290 293 296 298 299 299 299 299 299 300 303 302 301
288 286 287 287 282 275 269 274 283 284 283 278 276 282 281 277 273 275 277 279 279 280 282 283 284 284 284 285 286 286 286 286 286 286 285 286 287 290 293 293 293 293 294 294 293 294 294 293 292
291 288 288 281 279 282 274 274 283 282 281 281 280 283 280 278 274 274 275 276 277 279 280 281 284 283 284 284 285 285 285 285 284 283 284 285 285 288 290 292 291 291 291 290 290 289 289 289 288

GFSSGP_sfc_thetae_144.txt.gz
Theta_e
318 311 306 301 293 287 284 289 289 294 295 307 311 310 309 311 311 307 329 341 344 344 347 349 349 351 350 351 351 351 353 353 353 353 352 353 353 354 354 354 353 354 354 351 352 352 350 349 349
316 310 302 295 289 283 284 290 292 295 298 303 310 307 311 312 321 325 334 341 344 345 346 347 349 350 351 350 350 351 353 352 352 352 353 353 353 353 354 353 352 353 353 351 352 352 350 350 348
306 305 298 291 285 284 286 293 295 297 302 298 307 313 312 311 324 329 341 343 343 343 345 347 347 349 350 350 350 350 351 350 350 351 353 353 353 353 353 351 351 353 354 352 352 351 350 347 345
306 301 297 290 288 291 290 294 293 297 304 307 307 303 310 309 320 317 343 344 342 342 343 343 344 347 350 350 350 350 350 348 348 350 352 353 353 353 352 350 350 353 354 353 352 351 347 344 343
299 296 290 287 289 292 294 295 298 300 301 299 300 295 298 302 308 317 317 313 320 334 338 339 340 344 347 350 351 349 349 347 347 349 350 352 353 352 350 349 349 351 352 352 350 348 345 343 342
295 293 287 285 289 293 294 295 295 298 298 299 296 296 297 299 302 304 308 309 310 311 314 314 320 326 338 344 345 345 346 346 346 347 348 350 350 349 348 348 348 349 350 349 346 344 343 342 342
292 289 285 286 288 290 294 295 292 293 293 295 298 293 295 296 300 306 306 307 307 307 307 307 311 315 322 333 338 340 341 341 344 345 345 346 346 345 347 347 348 348 348 347 345 343 341 341 340
292 290 286 287 288 286 293 296 295 293 292 298 296 291 290 296 304 304 304 303 303 303 302 302 306 307 309 319 324 329 337 340 339 342 343 342 343 344 345 345 345 346 347 346 344 341 340 340 339
291 286 284 287 287 288 292 291 292 292 292 295 297 296 299 302 303 299 299 299 299 300 299 299 302 302 305 311 315 319 325 333 338 340 339 339 342 342 343 342 342 344 344 344 342 340 338 337 336
288 285 287 291 289 289 292 292 292 290 290 292 297 299 299 298 297 295 294 294 295 295 296 297 298 300 301 305 308 310 316 319 325 337 340 340 342 342 342 342 340 342 342 342 341 339 337 336 334
286 286 288 290 290 290 289 289 291 288 287 290 294 294 294 294 293 293 293 293 292 294 294 295 296 299 298 299 303 304 308 312 319 320 325 338 341 342 342 342 341 341 342 342 340 337 335 333 332
284 288 288 288 290 289 289 290 290 289 292 296 294 293 292 291 291 291 291 291 291 291 292 293 294 296 296 298 299 301 303 305 311 316 320 325 337 338 339 340 340 340 342 340 339 337 333 332 332
286 288 291 291 292 290 291 288 289 292 295 295 293 292 291 290 290 291 291 291 290 290 291 292 293 293 294 294 295 297 299 301 306 309 313 322 323 333 338 339 340 339 340 339 337 336 333 332 331
289 289 290 290 290 290 290 288 292 293 295 293 291 290 290 289 289 289 289 288 289 289 289 291 291 292 292 292 293 294 297 299 302 304 306 317 321 321 328 337 339 338 339 339 337 335 333 332 331
290 287 288 288 288 289 290 285 287 294 294 291 290 290 289 289 289 287 288 288 288 288 289 290 291 291 291 291 292 293 296 298 299 301 304 308 311 318 321 323 336 338 339 337 336 335 334 329 328
287 285 282 287 288 288 287 280 289 291 289 287 287 288 288 287 288 288 288 288 288 287 288 289 291 290 290 291 291 293 294 296 298 300 302 305 308 311 319 321 321 334 338 337 336 334 331 331 328
282 279 281 285 287 286 284 281 286 289 288 285 285 284 286 286 286 287 288 287 287 286 287 287 289 289 290 291 291 292 293 294 297 299 302 303 306 309 314 317 318 321 331 336 335 333 332 330 329
278 279 279 280 283 284 282 281 284 286 286 284 283 283 284 285 285 287 287 287 287 286 287 287 289 289 290 290 291 292 292 294 295 297 300 302 305 306 307 309 317 320 321 331 335 333 332 331 330
283 281 280 282 286 284 281 282 284 285 284 282 283 282 283 284 286 287 287 286 286 286 286 287 287 288 290 290 289 290 289 291 294 297 299 301 302 303 305 308 313 317 318 323 331 333 331 330 331
284 282 281 284 287 285 282 281 283 285 283 283 282 282 282 283 284 285 285 285 284 285 285 286 287 289 289 290 290 291 291 292 293 296 299 302 302 304 306 308 312 318 319 322 324 329 330 330 330
284 282 282 283 284 283 282 280 281 285 284 285 284 283 283 282 282 283 284 283 283 284 285 286 287 288 288 289 290 291 292 292 293 294 296 300 302 303 305 307 308 309 312 313 327 330 330 327 328
281 287 287 284 282 278 283 276 281 282 282 283 283 281 281 282 282 282 282 282 282 284 286 287 288 287 288 289 288 289 288 288 291 294 296 299 302 303 304 305 306 307 311 314 325 326 322 327 325
285 289 286 285 282 280 280 277 278 283 281 281 281 281 281 281 281 280 281 281 283 285 285 286 287 287 288 288 288 288 288 290 291 293 296 299 301 304 306 307 308 308 310 315 322 326 324 321 325
290 288 287 284 281 275 281 280 282 279 281 281 282 282 282 281 280 281 281 282 284 285 285 286 286 286 287 287 287 288 287 288 289 291 293 295 298 301 304 309 310 311 310 314 317 327 325 326 328
287 283 278 276 274 275 282 279 281 281 282 283 281 281 281 280 279 279 279 281 283 283 284 285 285 285 286 286 286 288 287 287 288 289 290 292 294 297 300 301 303 312 315 317 319 321 324 325 325
285 285 278 274 275 276 283 277 280 283 284 284 283 282 283 279 278 278 279 281 282 281 282 284 284 284 285 285 286 288 288 287 288 287 287 289 290 292 295 298 304 312 314 317 319 319 322 324 323
285 281 288 282 283 279 279 278 283 283 282 281 281 281 276 276 277 278 279 279 280 280 281 284 284 284 285 285 285 286 286 286 285 286 286 287 289 291 294 296 298 302 303 307 314 308 307 308 309
289 290 282 283 276 274 275 276 277 280 281 280 274 273 278 276 275 277 277 277 279 279 281 282 283 282 283 285 285 285 285 285 285 284 284 285 286 287 290 292 293 296 298 299 299 297 296 295 295
287 285 287 286 283 275 269 274 281 281 284 278 275 276 274 275 271 271 275 276 276 277 279 280 281 281 281 283 285 284 284 283 283 282 283 284 285 285 286 288 290 291 292 294 294 293 292 291 291
290 287 287 281 281 282 276 277 282 283 283 280 278 280 279 274 272 270 270 272 275 276 277 279 280 280 281 282 283 282 283 282 280 280 280 282 283 284 284 285 286 287 289 290 290 288 289 289 286

GFSSGP_sfc_thetae_147.txt.gz
Theta_e
324 316 315 310 303 299 295 297 298 301 309 314 318 318 317 319 317 315 342 347 348 349 352 352 349 350 351 351 351 352 352 353 353 354 354 354 354 355 355 355 354 355 356 352 351 351 350 349 350
318 314 311 305 300 294 295 298 298 301 308 310 318 316 316 315 328 336 341 347 348 349 351 352 348 350 350 350 350 351 352 351 352 352 353 354 354 354 354 353 352 353 354 352 351 351 350 349 348
313 309 309 301 296 295 296 299 298 303 307 305 316 320 316 304 316 324 320 342 341 338 339 331 341 346 350 350 350 351 351 350 351 352 352 353 354 354 353 351 351 353 353 352 352 352 351 348 346
311 310 305 300 295 297 297 299 299 301 311 314 315 307 304 308 312 310 317 321 317 316 318 323 329 336 345 350 350 350 350 349 349 350 352 353 353 353 352 350 351 352 354 353 354 353 348 345 344
307 306 300 297 296 299 300 299 302 304 302 306 303 298 301 304 309 311 312 312 312 311 313 316 321 326 332 335 342 347 348 347 348 349 351 352 352 353 351 349 349 351 353 353 352 350 346 343 343
304 303 297 295 296 299 300 300 299 299 301 300 299 299 298 306 307 308 309 308 308 308 309 311 314 317 322 325 328 334 341 344 346 347 349 350 351 350 350 348 348 349 350 350 349 346 344 343 342
301 299 295 295 295 296 298 300 297 298 299 298 302 296 299 304 307 307 306 306 306 306 305 307 309 310 314 317 320 324 329 337 341 343 343 344 345 345 347 348 348 348 348 348 346 344 342 342 341
301 300 294 295 295 295 298 299 299 298 297 301 301 296 297 303 305 304 304 303 303 303 303 303 305 307 308 312 314 316 321 324 332 340 341 340 339 343 344 344 346 346 347 347 345 342 341 340 339
299 297 294 295 294 295 298 296 298 299 299 300 301 300 301 302 303 301 301 300 300 300 301 300 301 303 304 307 309 311 314 317 324 328 335 340 345 347 347 345 343 345 344 345 344 341 339 338 337
298 295 294 297 296 295 297 297 297 297 296 297 298 299 299 299 299 298 297 296 297 297 298 298 299 300 301 302 305 306 308 312 315 323 325 333 342 344 344 343 338 342 340 342 342 340 338 337 343
294 294 295 297 297 297 296 297 298 295 294 297 297 295 296 296 296 296 295 295 295 296 296 297 297 299 299 299 302 302 305 307 309 315 317 320 330 344 343 344 346 348 344 348 345 346 345 344 343
293 294 294 295 295 295 295 297 294 296 294 296 296 295 295 294 294 293 294 294 294 294 295 296 296 297 298 299 298 300 302 304 306 309 311 313 321 328 339 341 342 342 343 343 343 343 346 345 343
292 293 295 296 296 296 296 294 296 293 295 295 295 294 293 292 293 293 293 294 294 293 294 295 296 296 296 297 297 298 300 302 304 306 308 310 312 321 324 329 340 341 342 342 341 340 340 343 342
293 293 294 295 295 295 295 294 295 294 295 293 293 292 292 291 291 293 292 292 292 293 293 294 295 296 296 296 297 297 299 300 302 304 306 308 312 311 314 322 325 338 341 340 340 339 339 338 342
293 291 293 293 294 294 295 291 291 295 295 292 291 291 291 291 292 291 292 292 292 292 293 293 295 296 295 296 296 297 298 299 299 302 305 306 308 310 312 313 320 325 338 339 339 339 339 336 337
291 291 288 292 293 293 295 289 291 294 293 290 290 290 290 290 291 292 292 292 292 292 292 293 294 294 295 296 296 297 297 298 299 301 302 304 307 309 310 313 316 324 323 331 338 336 335 334 333
288 287 286 290 292 292 291 288 290 292 292 289 289 289 289 290 290 291 292 291 291 291 291 291 293 293 294 295 296 297 297 298 298 299 300 303 305 307 307 309 312 317 319 319 330 336 334 332 332
285 286 287 287 290 291 289 288 289 290 291 289 289 289 289 289 289 290 291 291 291 291 291 291 292 293 294 294 295 296 296 297 297 298 299 301 303 304 304 307 310 312 315 320 322 330 335 333 332
288 286 286 289 291 290 290 289 290 289 289 288 288 288 288 288 289 290 290 290 290 291 290 291 291 293 292 292 290 291 291 294 295 296 297 299 301 303 303 306 309 311 313 318 320 323 330 331 333
288 287 287 289 291 290 289 289 289 289 290 289 288 287 287 287 288 288 289 289 289 289 290 290 290 291 290 290 291 291 292 293 294 296 297 299 300 302 302 305 307 309 312 313 320 323 321 321 330
287 285 286 287 290 290 288 288 287 288 288 288 287 287 286 286 286 287 287 288 288 289 289 289 290 290 290 290 290 290 291 291 291 292 294 297 300 302 303 303 305 308 310 310 311 317 320 320 322
284 289 289 288 286 283 289 283 287 287 286 287 287 285 286 285 286 286 286 286 287 288 289 289 289 289 289 289 288 288 287 286 290 291 293 295 299 301 303 304 305 305 306 307 311 314 318 325 325
287 291 289 288 286 285 285 283 288 286 285 287 286 286 286 285 285 285 285 285 288 289 288 289 289 289 289 288 288 288 288 289 289 290 291 293 295 298 301 303 304 306 308 308 308 313 317 325 328
291 289 289 287 286 280 285 284 286 287 287 285 286 286 285 285 285 285 285 286 287 288 288 289 288 288 288 288 288 288 287 287 287 288 288 289 291 293 295 297 298 301 303 306 310 314 318 319 328
289 286 280 279 279 279 286 284 287 287 287 288 286 285 285 284 284 284 284 285 286 286 286 287 287 286 287 287 287 287 286 286 286 286 286 287 288 289 292 295 297 299 303 307 312 315 318 317 325
286 286 281 275 277 280 285 281 287 287 287 287 286 286 285 283 283 283 284 284 284 285 286 286 285 285 286 287 287 287 286 286 286 286 286 286 287 288 291 293 295 296 298 302 314 317 319 325 325
287 284 289 283 284 280 284 287 285 285 284 284 284 284 282 282 282 282 283 283 283 284 285 285 285 285 285 286 286 285 285 284 284 284 285 286 286 288 289 290 291 292 294 297 304 305 308 309 315
291 292 284 284 276 275 281 282 285 283 283 283 281 281 283 281 280 282 282 282 283 283 285 285 285 283 285 286 285 285 284 284 283 284 283 285 287 286 287 287 288 289 290 291 294 297 296 296 297
289 287 288 288 284 278 277 282 287 286 287 284 282 281 281 281 280 280 281 281 281 282 283 283 283 283 283 284 284 284 283 283 283 282 283 284 285 285 286 286 285 285 286 287 289 291 292 291 292
292 289 289 282 281 284 282 284 285 286 288 286 283 282 281 280 280 279 280 280 280 281 281 282 282 282 282 283 282 282 282 282 281 281 282 282 283 283 284 285 284 284 284 284 285 286 287 287 288